Content
SEND FEEDBACK

Daily
Averages
Monthly
Summary
Algeria

ASSI EL BIOD, ALGERIA


Home > Africa > Algeria
Elevation: 295 feet     Latitude: 35 36N     Longitude: 000 36W

WEATHER
 
SELECT A DAY
Number of Records: 273,983;   Date Range: 1/10/97 - 8/27/14
 
SHARE

PRINT THIS DATA

[ ← Previous Day ]
WEATHER ALMANAC - JANUARY 31, 2013
[ Next Day → ]
[ °C ]   °F
Weather ElementAverageHighLow
Temperature55.3 °F71.6 °F (3:00 pm)41 °F (8:00 am)
Dewpoint46.6 °F55.4 °F (5:00 pm)37.4 °F (8:00 am)
Humidity73.9 %93 % (7:00 am)33 % (1:00 pm)
Barometer30.43 in30.48 in (11:30 am)30.39 in (4:00 pm)
Wind Speed0.2 mph10.4 mph (12:30 pm)
Weather ElementAverage
Visibility15.5 mi
Wind DirectionNNE (9.3 °)

Weather ElementTotal
Precipitation---
Heating Degree Days8.7 (Base 65)
Growing Degree Days6.3 (Base 50)
Averaged from 52 records on January 31, 2013
WEATHER CONDITIONS BREAKOUT
WIND DIRECTION BREAKOUT
WEATHER BY HOUR - JANUARY 31, 2013
[ °C ]   °F
Local TimeTemperatureDewpointHumidityBarometerVisibilityWind DirectionWind SpeedGust SpeedPrecipitationEventsConditions
12:30 AM48.2 °F44.6 °F87 %30.42 inCalmClear
1:00 AM49.0 °F45.0 °F80 %30.43 in12.0 miCalm
1:00 AM48.2 °F44.6 °F87 %30.42 inCalmClear
1:30 AM48.2 °F44.6 °F87 %30.42 inCalmClear
2:00 AM46.4 °F42.8 °F87 %30.42 inCalmClear
2:30 AM46.4 °F42.8 °F87 %30.42 inCalmClear
3:00 AM46.4 °F42.8 °F87 %30.42 inCalmClear
4:00 AM46.4 °F42.8 °F87 %30.42 inCalmClear
4:00 AM47.0 °F43.0 °F79 %30.43 in12.0 miCalm
4:30 AM48.2 °F42.8 °F82 %30.42 inCalmClear
5:00 AM48.2 °F42.8 °F82 %30.42 inCalmClear
5:30 AM42.8 °F39.2 °F87 %30.42 inCalmClear
6:00 AM42.8 °F39.2 °F87 %30.42 inCalmClear
7:00 AM42.8 °F41.0 °F93 %30.42 inCalmClear
7:00 AM43.0 °F40.0 °F86 %30.43 in12.0 miCalm
7:30 AM42.8 °F41.0 °F93 %30.42 inCalmClear
8:00 AM41.0 °F37.4 °F87 %30.42 inCalmClear
8:30 AM41.0 °F39.2 °F93 %30.42 inCalmClear
9:00 AM44.6 °F41.0 °F87 %30.45 inCalmClear
9:30 AM50.0 °F44.6 °F82 %30.45 inCalmClear
10:00 AM53.6 °F44.6 °F72 %30.45 inCalmClear
10:00 AM53.0 °F45.0 °F67 %30.47 in19.0 miCalm
10:30 AM57.2 °F48.2 °F72 %30.45 inCalmClear
11:00 AM59.0 °F48.2 °F67 %30.45 inSSW (200°)2.3 mphClear
11:30 AM62.6 °F46.4 °F55 %30.48 inCalmClear
12:00 PM66.2 °F46.4 °F49 %30.48 inCalmClear
12:30 PM68.0 °F46.4 °F46 %30.45 inSSW (210°)10.4 mphClear
1:00 PM70.0 °F47.0 °F33 %30.45 in19.0 miCalm
1:00 PM69.8 °F48.2 °F46 %30.45 inCalmClear
1:30 PM68.0 °F48.2 °F49 %30.45 inCalmClear
2:00 PM68.0 °F48.2 °F49 %30.42 inCalmClear
2:30 PM68.0 °F48.2 °F49 %30.42 inCalmClear
3:00 PM71.6 °F50.0 °F46 %30.42 inCalmClear
3:30 PM71.6 °F50.0 °F46 %30.42 inCalmClear
4:00 PM71.0 °F50.0 °F36 %30.40 in19.0 miCalm
4:00 PM71.6 °F50.0 °F46 %30.39 inCalmClear
4:30 PM68.0 °F51.8 °F56 %30.39 inCalmClear
5:00 PM68.0 °F55.4 °F64 %30.39 inCalmClear
5:30 PM66.2 °F55.4 °F68 %30.39 inCalmClear
6:00 PM62.6 °F55.4 °F77 %30.39 inCalmClear
6:30 PM60.8 °F55.4 °F82 %30.39 inCalmClear
7:00 PM59.0 °F53.0 °F75 %30.41 in19.0 miCalm
7:00 PM59.0 °F53.6 °F82 %30.42 inCalmClear
8:00 PM55.4 °F51.8 °F88 %30.42 inCalmClear
8:30 PM55.4 °F51.8 °F88 %30.42 inCalmClear
9:00 PM53.6 °F50.0 °F88 %30.42 inCalmClear
9:30 PM53.6 °F50.0 °F88 %30.42 inCalmClear
10:00 PM52.0 °F48.0 °F82 %30.42 in12.0 miCalm
10:00 PM51.8 °F48.2 °F88 %30.42 inCalmClear
10:30 PM51.8 °F48.2 °F88 %30.42 inCalmClear
11:00 PM48.2 °F44.6 °F87 %30.42 inCalmClear
11:30 PM48.2 °F44.6 °F87 %30.42 inCalmClear
Hourly data recorded from DAOO, located miles away from Assi el Biod, Algeria







STORIES FROM OUR PARTNERS